Location: B�rgermoos
(47.6500°N, 9.0667°E)
Time: 08:11:37
(UTC+00:00)

Cosmos 1437 - Pass Details

Date: 18 September 2020
Orbit: 365 x 369 km, 81.2° (Epoch: 27 October)

Event Time Altitude Azimuth Distance (km) Brightness Sun altitude
Rises 18:10:22 0° 350° (N) 2,256 6.8 -7.7°
Reaches altitude 10° 18:12:22 10° 352° (N) 1,399 5.7 -8.1°
Maximum altitude 18:15:24 76° 79° (ENE) 395 2.4 -8.6°
Drops below altitude 10° 18:18:24 10° 165° (SSE) 1,385 5.1 -9.1°
Sets 18:20:23 0° 167° (SSE) 2,230 6.2 -9.4°
